Weather History for Goodland, KS

Change the Weather History Date:

Wednesday, May 14, 2014

  Actual Average Record
Temperature  
Mean Temperature 49 °F 59 °F  
Max Temperature 65 °F 72 °F 95 °F (1915)
Min Temperature 32 °F 45 °F 27 °F (1953)
Degree Days  
Heating Degree Days 16 7  
Month to date heating degree days 158 127  
Since 1 July heating degree days 5907 5782  
Cooling Degree Days 0 1  
Month to date cooling degree days 0 12  
Year to date cooling degree days 5 16  
Moisture  
Dew Point 31 °F    
Average Humidity 56    
Maximum Humidity 89    
Minimum Humidity 23    
Precipitation  
Precipitation T in 0.09 in 1.27 in (1928)
Month to date precipitation 0.16 1.13  
Year to date precipitation 1.95 4.66  
Snow  
Snow 0.00 in 0.00 in - ()
Month to date snowfall T 0.4  
Since 1 July snowfall 29.1 35.4  
Snow Depth 0.00 in    
Sea Level Pressure  
Sea Level Pressure 30.32 in    
Wind  
Wind Speed 13 mph (NW)    
Max Wind Speed 30 mph    
Max Gust Speed 36 mph    
Visibility 10 miles    
Events Rain    
T = Trace of Precipitation, MM = Missing Value Source: NWS Daily Summary

Daily Weather History Graph

Daily Weather History Graph

Search for Another Location

Airport:

Trip Planner

Search our weather history database for the weather conditions in past years. The results will help you decide how hot, cold, wet, or windy it might be!

Date:

Astronomy

May. 14, 2014 Rise Set
Actual Time 5:33 AM MDT 7:52 PM MDT
Civil Twilight 5:03 AM MDT 8:23 PM MDT
Nautical Twilight 4:26 AM MDT 9:00 PM MDT
Astronomical Twilight 3:45 AM MDT 9:41 PM MDT
Moon 8:00 PM MDT (5/14) 5:33 AM MDT (5/14)
Length of Visible Light 15h 19m
Length of Day
14h 18m
Full, 100% of the Moon is Illuminated
May 14
Full
May 14
Full
May 21
Last Quarter
May 28
New
Jun 5
First Quarter

Hourly Weather History & Observations

Time (MDT) Temp. Windchill Dew Point Humidity Pressure Visibility Wind Dir Wind Speed Gust Speed Precip Events Conditions
12:53 AM 32.0 °F 25.6 °F 28.9 °F 88% 30.42 in 10.0 mi West 6.9 mph - N/A   Clear
1:53 AM 33.1 °F 26.1 °F 28.9 °F 85% 30.40 in 10.0 mi West 8.1 mph - N/A   Clear
2:53 AM 32.0 °F 24.2 °F 28.9 °F 88% 30.39 in 10.0 mi West 9.2 mph - N/A   Clear
3:53 AM 32.0 °F 24.2 °F 28.9 °F 88% 30.39 in 10.0 mi West 9.2 mph - N/A   Clear
4:53 AM 33.1 °F 26.1 °F 28.9 °F 85% 30.38 in 10.0 mi West 8.1 mph - N/A   Clear
5:53 AM 34.0 °F 25.0 °F 30.0 °F 85% 30.38 in 10.0 mi West 12.7 mph - N/A   Clear
6:53 AM 37.0 °F 29.3 °F 33.1 °F 86% 30.39 in 10.0 mi West 11.5 mph - N/A   Clear
7:53 AM 44.1 °F 37.1 °F 35.1 °F 71% 30.37 in 10.0 mi WNW 15.0 mph - N/A   Clear
8:53 AM 50.0 °F - 35.6 °F 58% 30.38 in 10.0 mi NW 13.8 mph - N/A   Clear
9:53 AM 55.9 °F - 32.0 °F 40% 30.36 in 10.0 mi NNW 15.0 mph - N/A   Clear
10:53 AM 60.1 °F - 25.0 °F 26% 30.33 in 10.0 mi North 17.3 mph - N/A   Clear
11:53 AM 61.0 °F - 28.9 °F 30% 30.32 in 10.0 mi NNW 10.4 mph 21.9 mph N/A   Mostly Cloudy
12:53 PM 54.0 °F - 34.0 °F 47% 30.33 in 10.0 mi East 4.6 mph - 0.00 in Rain Light Rain
1:53 PM 54.0 °F - 35.1 °F 49% 30.32 in 10.0 mi NW 11.5 mph - 0.00 in Rain Light Rain
2:53 PM 62.1 °F - 30.9 °F 31% 30.25 in 10.0 mi North 13.8 mph 24.2 mph 0.00 in   Clear
3:53 PM 64.9 °F - 27.0 °F 24% 30.21 in 10.0 mi North 24.2 mph 33.4 mph N/A   Partly Cloudy
4:53 PM 62.1 °F - 25.0 °F 24% 30.21 in 10.0 mi North 20.7 mph 31.1 mph N/A   Scattered Clouds
5:53 PM 61.0 °F - 25.0 °F 25% 30.22 in 10.0 mi North 17.3 mph - N/A   Partly Cloudy
6:53 PM 55.0 °F - 30.9 °F 40% 30.26 in 10.0 mi NNE 21.9 mph 28.8 mph N/A   Overcast
7:53 PM 48.0 °F - 36.0 °F 63% 30.28 in 10.0 mi NNE 15.0 mph - N/A   Partly Cloudy
8:53 PM 44.6 °F 43.1 °F 35.6 °F 71% 30.29 in 10.0 mi North 3.5 mph - N/A   Partly Cloudy
9:53 PM 43.0 °F 39.5 °F 37.0 °F 80% 30.28 in 10.0 mi WSW 5.8 mph - N/A   Partly Cloudy
10:53 PM 37.0 °F 30.4 °F 33.1 °F 86% 30.29 in 10.0 mi NNW 9.2 mph - N/A   Clear
11:53 PM 39.0 °F 32.3 °F 34.0 °F 82% 30.27 in 10.0 mi West 10.4 mph - N/A   Clear